Zurück zum Katalog

FENGYUN 1C DEB

AktivPO
NORAD 31916·DEBRIS·🇨🇳 China

Gestartet May 10, 1999 von Taiyuan Satellite Launch Center

Loading…

Nächste Überflüge (nächste 24 Stunden)

TLE

AktuellSource: Space-Track

Epoche: Sep 14, 2026, 13:34 UTC

1 31916U 99025CLT 26257.56569005  .00001799  00000-0  58679-3 0  9997
2 31916  99.3319   9.1683 0141688  19.0331 341.6072 14.34524949684790

Verfolge FENGYUN 1C DEB in Echtzeit mit AllMySat

Download on the App Store